Regional Weather Roundup
Issued by NWS

Home | Current Version | Previous Version | Graphics & Text | Print | Product List | Glossary On
Versions: 1 2 3 4 5 6 7 8 9 10 11 12 13 14 15 16 17 18 19 20 21 22 23 24 25 26 27 28 29 30 31 32 33 34 35 36 37 38 39 40 41 42 43 44 45 46 47 48 49 50
000
ASUS43 KDMX 301303
RWRIA

WEATHER ROUNDUP FOR IOWA
NATIONAL WEATHER SERVICE DES MOINES IA
800 AM CDT FRI SEP 30 2016

NOTE: "FAIR" INDICATES FEW OR NO CLOUDS BELOW 12,000 FEET WITH NO
SIGNIFICANT WEATHER AND/OR OBSTRUCTIONS TO VISIBILITY.

* - THESE STATIONS ARE NOT NWS STATIONS...THUS NOT UNDER NWS
QUALITY CONTROL.  THEY ALSO DO NOT REPORT WEATHER SUCH
AS PRECIPITATION OR FOG.

IAZ001>003-012>014-020>022-031>034-043>046-301400-
   NORTHWEST IOWA

CITY           SKY/WX    TMP DP  RH WIND       PRES   REMARKS
CARROLL *      CLEAR     46  46 100 NW6       30.31S
CHEROKEE *     CLEAR     43  43 100 NE3       30.33S
DENISON *      CLEAR     45  43  93 NE3       30.30S
LE MARS *      CLEAR     43  41  93 CALM      30.34S
SHELDON *      CLEAR     45  45 100 CALM      30.33R
SIOUX CITY     CLEAR     42  42 100 CALM      30.33R
SPENCER        FOG       41  40  96 CALM      30.34S VSB 1/2
STORM LAKE *   CLEAR     50  48  93 NE6       30.33R
$$

IAZ055>058-069>071-079>083-090>094-301400-
   SOUTHWEST IOWA

CITY           SKY/WX    TMP DP  RH WIND       PRES   REMARKS
ATLANTIC *     CLEAR     45  45 100 N5        30.30S
AUDUBON *      CLEAR     45  43  93 CALM      30.31S
CLARINDA *       N/A     46  46 100 MISG      30.30S FOG
COUNCIL BLFS * CLEAR     46  46 100 CALM      30.30S
CRESTON *      CLEAR     52  48  87 N10       30.28S
HARLAN  *      CLEAR     45  45 100 N5        30.33F
LAMONI         CLEAR     50  48  93 N8        30.25F
RED OAK *      CLEAR     46  46 100 CALM      30.30R
SHENANDOAH *   CLEAR     43  43 100 CALM      30.30R
$$

IAZ047>049-059>061-072>074-084-301400-
   CENTRAL IOWA

CITY           SKY/WX    TMP DP  RH WIND       PRES   REMARKS
AMES           CLEAR     50  49  96 N6        30.28F
ANKENY *         N/A    N/A N/A N/A MISG        N/A
BOONE *        CLEAR     52  48  87 NE7       30.27F
CHARITON *       N/A     50  48  93 N6        30.25S
DES MOINES     PTCLDY    55  49  80 NE10      30.27S
GRINNELL*      CLEAR     53  49  87 N7        30.26S
KNOXVILLE *    PTCLDY    54  48  82 N9        30.24S
MARSHALLTOWN   CLEAR     52  50  93 N9        30.27F
NEWTON *       PTCLDY    52  50  93 N10       30.25F
PELLA *        CLEAR     50  48  93 N5        30.26F
PERRY *          N/A     48  48 100 NW5       30.29S
$$

IAZ004>006-015-016-023>025-035-036-301400-
   NORTH CENTRAL IOWA

CITY           SKY/WX    TMP DP  RH WIND       PRES   REMARKS
ALGONA *       CLEAR     45  45 100 CALM      30.33S
CLARION *      CLEAR     50  50 100 NE7       30.31S
ESTHERVILLE    CLEAR     43  43 100 NW7       30.33S FOG
FORT DODGE *   CLEAR     46  43  87 CALM      30.31F
MASON CITY     CLEAR     48  47  96 N5        30.35R
FOREST CITY *    N/A     50  50 100 CALM      30.32F
WEBSTER CITY * CLEAR     46  46 100 N6        30.28F
IOWA FALLS *     N/A     52  49  90 NE8       30.31S
$$

IAZ007>011-017>019-026>030-037>042-050>054-066-301400-
   NORTHEAST IOWA

CITY           SKY/WX    TMP DP  RH WIND       PRES   REMARKS
CEDAR RAPIDS   MOCLDY    53  52  96 N12       30.23S
CHARLES CITY * CLOUDY    52  52 100 N7        30.31F
CLINTON *      CLOUDY    59  55  87 N12       30.21S
DECORAH *      CLOUDY    54  52  94 N9        30.29S
DUBUQUE        CLOUDY    57  54  89 NE10      30.24S
MONTICELLO *   CLOUDY    57  54  88 NE5       30.24S
OELWEIN *      CLOUDY    55  54  94 N9        30.28F
WATERLOO       CLOUDY    54  51  90 N8        30.27F
$$

IAZ064-065-067-068-078-301400-
   EAST CENTRAL IOWA

CITY           SKY/WX    TMP DP  RH WIND       PRES   REMARKS
DAVENPORT      CLOUDY    58  55  90 N12       30.21S
IOWA CITY      CLEAR     56  51  84 N9        30.24S
MT. PLEASANT * CLEAR     55  55  97 N9        30.20F
MUSCATINE *    CLOUDY    55  52  88 NE7       30.21S
QUAD CITIES    CLOUDY    59  54  83 N9        30.19S
$$

IAZ062-063-075>077-085>089-095>099-301400-
   SOUTHEAST IOWA

CITY           SKY/WX    TMP DP  RH WIND       PRES   REMARKS
BURLINGTON     CLOUDY    54  54 100 N10       30.18S
FAIRFIELD *    PTCLDY    52  48  87 N8        30.22R
FORT MADISON * MOSUNNY   54  52  94 N3        30.19F
KEOKUK *       MOSUNNY   55  52  88 N8        30.18S
OSKALOOSA *      N/A     51  49  92 N8        30.24S
OTTUMWA        CLEAR     52  48  86 N10       30.23S
WASHINGTON *     N/A    N/A N/A N/A MISG        N/A
$$

ABBREVIATIONS USED IN REMARKS
   TC - TEMPERATURES IN CELSIUS
  WCI - WIND CHILL INDEX
   HX - HEAT INDEX
  VSB - VISIBILITY
$$





USA.gov is the U.S. government's official web portal to all federal, state and local government web resources and services.